timestamp,surface_pressure_avg,surface_temp_avg,battery_voltage,lat,long
2018-05-23 00:00:00+00:00,225.8031,6.07,13.29,47.84626,-54.09684
2018-05-23 00:10:00+00:00,225.1398,6.1,13.21,47.84626,-54.09684
2018-05-23 00:20:00+00:00,224.9081,6.13,13.21,47.84626,-54.09684
2018-05-23 00:30:00+00:00,225.4731,6.1,13.21,47.84626,-54.09684
2018-05-23 00:40:00+00:00,226.6265,6.18,13.21,47.84626,-54.09684
2018-05-23 00:50:00+00:00,230.3131,6.42,13.21,47.84626,-54.09684
2018-05-23 01:00:00+00:00,232.1014,6.62,13.13,47.84626,-54.09684
2018-05-23 01:10:00+00:00,230.0181,6.74,13.05,47.84626,-54.09684
2018-05-23 01:20:00+00:00,229.7198,6.8,13.05,47.84626,-54.09684
2018-05-23 01:30:00+00:00,235.1114,6.7,13.05,47.84626,-54.09684
2018-05-23 01:40:00+00:00,236.3697,6.6,13.05,47.84626,-54.09684
2018-05-23 01:50:00+00:00,237.9531,6.6,13.13,47.84626,-54.09684
2018-05-23 02:00:00+00:00,242.8931,6.5,13.05,47.84626,-54.09684
2018-05-23 02:10:00+00:00,248.8864,6.4,12.97,47.84626,-54.09684
2018-05-23 02:20:00+00:00,247.1748,6.4,13.05,47.84626,-54.09684
2018-05-23 02:30:00+00:00,249.6864,6.33,13.05,47.84626,-54.09684
2018-05-23 02:40:00+00:00,259.4414,6.3,13.05,47.84626,-54.09684
2018-05-23 02:50:00+00:00,267.9781,6.22,13.05,47.84626,-54.09684
2018-05-23 03:00:00+00:00,268.5931,6.22,12.97,47.84626,-54.09684
2018-05-23 03:10:00+00:00,273.3714,6.24,12.97,47.84626,-54.09684
2018-05-23 03:20:00+00:00,279.5947,6.2,12.97,47.84626,-54.09684
2018-05-23 03:30:00+00:00,286.2947,6.11,12.97,47.84626,-54.09684
2018-05-23 03:40:00+00:00,286.5063,6.1,13.05,47.84626,-54.09684
2018-05-23 03:50:00+00:00,292.9047,6.1,13.05,47.84626,-54.09684
2018-05-23 04:00:00+00:00,301.0847,6.1,12.97,47.84626,-54.09684
2018-05-23 04:10:00+00:00,307.5714,6.16,12.89,47.84626,-54.09684
2018-05-23 04:20:00+00:00,309.4847,6.2,12.97,47.84626,-54.09684
2018-05-23 04:30:00+00:00,315.5213,6.2,12.97,47.84626,-54.09684
2018-05-23 04:40:00+00:00,320.298,6.2,12.97,47.84626,-54.09684
2018-05-23 04:50:00+00:00,319.2996,6.28,12.97,47.84626,-54.09684
2018-05-23 05:00:00+00:00,324.283,6.3,12.97,47.84626,-54.09684
2018-05-23 05:10:00+00:00,328.8796,6.3,12.89,47.84626,-54.09684
2018-05-23 05:20:00+00:00,332.873,6.3,12.97,47.84626,-54.09684
2018-05-23 05:30:00+00:00,334.3197,6.3,12.97,47.84626,-54.09684
2018-05-23 05:40:00+00:00,338.5214,6.3,12.97,47.84626,-54.09684
2018-05-23 05:50:00+00:00,343.0729,6.3,12.97,47.84626,-54.09684
2018-05-23 06:00:00+00:00,344.5563,6.29,12.89,47.84626,-54.09684
2018-05-23 06:10:00+00:00,343.0114,6.27,12.89,47.84626,-54.09684
2018-05-23 06:20:00+00:00,345.7746,6.28,12.89,47.84626,-54.09684
2018-05-23 06:30:00+00:00,349.6146,6.29,12.97,47.84626,-54.09684
2018-05-23 06:40:00+00:00,344.3695,6.28,12.97,47.84626,-54.09684
2018-05-23 06:50:00+00:00,342.1313,6.21,12.97,47.84626,-54.09684
2018-05-23 07:00:00+00:00,344.153,6.2,12.89,47.84626,-54.09684
2018-05-23 07:10:00+00:00,341.1863,6.2,12.81,47.84626,-54.09684
2018-05-23 07:20:00+00:00,336.4213,6.2,12.89,47.84626,-54.09684
2018-05-23 07:30:00+00:00,333.5997,6.2,12.89,47.84626,-54.09684
2018-05-23 07:40:00+00:00,329.3563,6.21,12.97,47.84626,-54.09684
2018-05-23 07:50:00+00:00,322.4763,6.23,12.97,47.84626,-54.09684
2018-05-23 08:00:00+00:00,315.3463,6.2,12.89,47.84626,-54.09684
2018-05-23 08:10:00+00:00,311.6263,6.2,12.81,47.84626,-54.09684
2018-05-23 08:20:00+00:00,309.488,6.2,12.89,47.84626,-54.09684
2018-05-23 08:30:00+00:00,301.5047,6.22,12.89,47.84626,-54.09684
2018-05-23 08:40:00+00:00,293.2113,6.25,12.89,47.84626,-54.09684
2018-05-23 08:50:00+00:00,290.1414,6.24,12.97,47.84626,-54.09684
2018-05-23 09:00:00+00:00,288.3864,6.23,12.89,47.84626,-54.09684
2018-05-23 09:10:00+00:00,277.4847,6.23,12.81,47.84626,-54.09684
2018-05-23 09:20:00+00:00,268.1797,6.22,12.89,47.84626,-54.09684
2018-05-23 09:30:00+00:00,268.5464,6.2,12.89,47.84626,-54.09684
2018-05-23 09:40:00+00:00,266.4898,6.2,12.97,47.84626,-54.09684
2018-05-23 09:50:00+00:00,254.1097,6.2,12.97,47.84626,-54.09684
2018-05-23 10:00:00+00:00,244.4897,6.22,12.89,47.84626,-54.09684
2018-05-23 10:10:00+00:00,240.2981,6.2,12.81,47.84626,-54.09684
2018-05-23 10:20:00+00:00,233.5214,6.2,12.97,47.84626,-54.09684
2018-05-23 10:30:00+00:00,223.4565,6.2,12.97,47.84626,-54.09684
2018-05-23 10:40:00+00:00,220.1981,6.2,13.05,47.84626,-54.09684
2018-05-23 10:50:00+00:00,221.9848,6.2,13.21,47.84626,-54.09684
2018-05-23 11:00:00+00:00,218.0531,6.2,13.37,47.84626,-54.09684
2018-05-23 11:10:00+00:00,211.3598,6.2,13.44,47.84626,-54.09684
2018-05-23 11:20:00+00:00,212.5864,6.2,13.6,47.84626,-54.09684
2018-05-23 11:30:00+00:00,214.2115,6.2,13.76,47.84626,-54.09684
2018-05-23 11:40:00+00:00,209.6331,6.2,13.76,47.84626,-54.09684
2018-05-23 11:50:00+00:00,206.4731,6.2,13.84,47.84626,-54.09684
2018-05-23 12:00:00+00:00,208.8464,6.2,13.76,47.84626,-54.09684
2018-05-23 12:10:00+00:00,210.2265,6.25,13.68,47.84626,-54.09684
2018-05-23 12:20:00+00:00,211.1131,6.29,13.68,47.84626,-54.09684
2018-05-23 12:30:00+00:00,210.8631,6.34,13.76,47.84626,-54.09684
2018-05-23 12:40:00+00:00,210.5748,6.5,13.76,47.84626,-54.09684
2018-05-23 12:50:00+00:00,209.4331,6.6,13.84,47.84626,-54.09684
2018-05-23 13:00:00+00:00,209.0015,6.68,13.76,47.84626,-54.09684
2018-05-23 13:10:00+00:00,207.3848,6.7,13.6,47.84626,-54.09684
2018-05-23 13:20:00+00:00,203.5681,6.7,13.68,47.84626,-54.09684
2018-05-23 13:30:00+00:00,205.9481,6.7,13.68,47.84626,-54.09684
2018-05-23 13:40:00+00:00,210.8898,6.7,13.76,47.84626,-54.09684
2018-05-23 13:50:00+00:00,208.3098,6.7,13.84,47.84626,-54.09684
2018-05-23 14:00:00+00:00,206.6698,6.7,13.92,47.84626,-54.09684
2018-05-23 14:10:00+00:00,213.8815,6.68,14.0,47.84626,-54.09684
2018-05-23 14:20:00+00:00,217.9715,6.67,14.32,47.84626,-54.09684
2018-05-23 14:30:00+00:00,216.0097,6.69,14.32,47.84626,-54.09684
2018-05-23 14:40:00+00:00,221.2398,6.7,14.32,47.84626,-54.09684
2018-05-23 14:50:00+00:00,226.6031,6.66,14.24,47.84626,-54.09684
2018-05-23 15:00:00+00:00,225.2714,6.64,14.08,47.84626,-54.09684
2018-05-23 15:10:00+00:00,226.7931,6.65,14.0,47.84626,-54.09684
2018-05-23 15:20:00+00:00,235.7814,6.65,14.08,47.84626,-54.09684
2018-05-23 15:30:00+00:00,242.2997,6.67,14.08,47.84626,-54.09684
2018-05-23 15:40:00+00:00,244.2198,6.7,14.08,47.84626,-54.09684
2018-05-23 15:50:00+00:00,255.1848,6.7,14.08,47.84626,-54.09684
2018-05-23 16:00:00+00:00,269.2164,6.69,14.0,47.84626,-54.09684
2018-05-23 16:10:00+00:00,274.8981,6.62,13.92,47.84626,-54.09684
2018-05-23 16:20:00+00:00,275.7914,6.6,13.92,47.84626,-54.09684
2018-05-23 16:30:00+00:00,284.4414,6.5,14.0,47.84626,-54.09684
2018-05-23 16:40:00+00:00,292.1614,6.5,14.0,47.84626,-54.09684
2018-05-23 16:50:00+00:00,292.033,6.5,14.0,47.84626,-54.09684
2018-05-23 17:00:00+00:00,290.8813,6.53,13.92,47.84626,-54.09684
2018-05-23 17:10:00+00:00,299.0164,6.54,13.84,47.84626,-54.09684
2018-05-23 17:20:00+00:00,305.6547,6.57,13.92,47.84626,-54.09684
2018-05-23 17:30:00+00:00,303.4014,6.59,13.92,47.84626,-54.09684
2018-05-23 17:40:00+00:00,311.1663,6.6,13.92,47.84626,-54.09684
2018-05-23 17:50:00+00:00,323.0262,6.5,13.92,47.84626,-54.09684
2018-05-23 18:00:00+00:00,323.443,6.57,13.84,47.84626,-54.09684
2018-05-23 18:10:00+00:00,317.4013,6.6,13.84,47.84626,-54.09684
2018-05-23 18:20:00+00:00,324.7979,6.5,13.92,47.84626,-54.09684
2018-05-23 18:30:00+00:00,337.5513,6.48,13.92,47.84626,-54.09684
2018-05-23 18:40:00+00:00,335.9012,6.52,13.84,47.84626,-54.09684
2018-05-23 18:50:00+00:00,330.8313,6.53,13.84,47.84626,-54.09684
2018-05-23 19:00:00+00:00,339.0862,6.5,13.76,47.84626,-54.09684
2018-05-23 19:10:00+00:00,346.6979,6.49,13.68,47.84626,-54.09684
2018-05-23 19:20:00+00:00,341.2029,6.5,13.68,47.84626,-54.09684
2018-05-23 19:30:00+00:00,334.2196,6.5,13.68,47.84626,-54.09684
2018-05-23 19:40:00+00:00,335.0063,6.5,13.76,47.84626,-54.09684
2018-05-23 19:50:00+00:00,337.063,6.4,13.76,47.84626,-54.09684
2018-05-23 20:00:00+00:00,332.0963,6.45,13.68,47.84626,-54.09684
2018-05-23 20:10:00+00:00,331.3762,6.49,13.6,47.84626,-54.09684
2018-05-23 20:20:00+00:00,332.7613,6.5,13.68,47.84626,-54.09684
2018-05-23 20:30:00+00:00,322.1964,6.5,13.68,47.84626,-54.09684
2018-05-23 20:40:00+00:00,310.238,6.5,13.68,47.84626,-54.09684
2018-05-23 20:50:00+00:00,310.598,6.5,13.68,47.84626,-54.09684
2018-05-23 21:00:00+00:00,309.9579,6.5,13.6,47.84626,-54.09684
2018-05-23 21:10:00+00:00,294.6797,6.5,13.44,47.84626,-54.09684
2018-05-23 21:20:00+00:00,284.0647,6.58,13.44,47.84626,-54.09684
2018-05-23 21:30:00+00:00,284.7764,6.59,13.37,47.84626,-54.09684
2018-05-23 21:40:00+00:00,279.7281,6.59,13.37,47.84626,-54.09684
2018-05-23 21:50:00+00:00,269.7097,6.6,13.37,47.84626,-54.09684
2018-05-23 22:00:00+00:00,269.463,6.6,13.29,47.84626,-54.09684
2018-05-23 22:10:00+00:00,271.1881,6.6,13.21,47.84626,-54.09684
2018-05-23 22:20:00+00:00,266.7397,6.6,13.21,47.84626,-54.09684
2018-05-23 22:30:00+00:00,260.003,6.6,13.21,47.84626,-54.09684
2018-05-23 22:40:00+00:00,258.2764,6.6,13.21,47.84626,-54.09684
2018-05-23 22:50:00+00:00,252.3164,6.61,13.21,47.84626,-54.09684
2018-05-23 23:00:00+00:00,249.5798,6.64,13.13,47.84626,-54.09684
2018-05-23 23:10:00+00:00,249.2964,6.63,13.05,47.84626,-54.09684
2018-05-23 23:20:00+00:00,248.1847,6.65,13.05,47.84626,-54.09684
2018-05-23 23:30:00+00:00,241.1515,6.69,13.05,47.84626,-54.09684
2018-05-23 23:40:00+00:00,240.0314,6.69,13.05,47.84626,-54.09684
2018-05-23 23:50:00+00:00,242.8498,6.69,13.05,47.84626,-54.09684
